Date,Time,Wetness (Wet Dry or Ice),Wind Speed (m/s),Temperature (C),Humidity (%),Pressure (mb),Radiation (W/m^2)
2020-11-07,00:20:00,DRY,2.60,6.53,6.3,772.00,1.2
2020-11-07,00:25:00,DRY,3.60,6.55,6.0,772.00,0.9
2020-11-07,00:30:00,DRY,2.80,6.53,6.0,772.00,1.5
2020-11-07,00:35:00,DRY,3.55,6.55,6.0,772.00,0.6
2020-11-07,00:40:00,DRY,2.00,6.43,6.7,772.00,2.4
2020-11-07,00:45:00,DRY,3.95,6.50,6.0,772.00,1.6
2020-11-07,00:50:00,DRY,3.30,6.53,6.7,772.00,1.2
2020-11-07,00:55:00,DRY,3.30,6.70,6.5,772.00,1.2
2020-11-07,01:00:00,DRY,3.33,6.57,6.7,772.00,1.0
2020-11-07,01:05:00,DRY,3.65,6.70,6.0,772.00,1.1
2020-11-07,01:10:00,DRY,3.07,6.70,6.3,772.00,1.3
2020-11-07,01:15:00,DRY,2.50,6.55,6.0,772.00,0.9
2020-11-07,01:20:00,DRY,3.23,6.57,6.7,772.00,0.9
2020-11-07,01:25:00,DRY,3.15,6.60,6.5,772.00,0.8
2020-11-07,01:30:00,DRY,3.90,6.80,6.0,772.00,1.1
2020-11-07,01:35:00,DRY,2.70,7.00,6.0,772.00,1.1
2020-11-07,01:40:00,DRY,2.80,7.03,6.3,772.00,0.2
2020-11-07,01:45:00,DRY,3.15,6.95,7.0,772.00,0.5
2020-11-07,01:50:00,DRY,3.37,6.90,7.0,772.00,1.3
2020-11-07,01:55:00,DRY,4.35,6.95,7.5,772.00,1.1
2020-11-07,02:00:00,DRY,3.83,6.93,6.7,772.00,1.5
2020-11-07,02:05:00,DRY,3.15,7.00,6.5,772.00,1.6
2020-11-07,02:10:00,DRY,3.77,7.17,6.7,772.00,1.2
2020-11-07,02:15:00,DRY,4.00,6.70,6.0,772.00,1.2
2020-11-07,02:20:00,DRY,4.47,6.13,7.0,772.00,1.4
2020-11-07,02:25:00,DRY,5.00,6.25,7.0,772.00,1.2
2020-11-07,02:30:00,DRY,5.00,6.67,6.0,772.00,1.1
2020-11-07,02:35:00,DRY,4.35,7.00,6.0,772.00,1.0
2020-11-07,02:40:00,DRY,4.57,6.93,6.0,772.00,1.1
2020-11-07,02:45:00,DRY,4.70,7.20,6.0,772.00,1.9
2020-11-07,02:50:00,DRY,4.67,7.03,6.7,772.00,1.4
2020-11-07,02:55:00,DRY,4.35,7.00,6.0,772.00,1.2
2020-11-07,03:00:00,DRY,3.90,7.27,6.0,772.00,1.0
2020-11-07,03:05:00,DRY,3.70,7.30,6.0,772.00,1.4
2020-11-07,03:10:00,DRY,3.23,7.17,6.7,772.00,1.2
2020-11-07,03:15:00,DRY,3.65,7.10,6.0,772.00,1.2
2020-11-07,03:20:00,DRY,3.23,7.17,6.3,772.00,1.1
2020-11-07,03:25:00,DRY,2.80,7.10,6.0,772.00,0.9
2020-11-07,03:30:00,DRY,3.83,7.00,6.7,772.00,1.1
2020-11-07,03:35:00,DRY,3.90,6.95,6.0,772.00,0.6
2020-11-07,03:40:00,DRY,4.63,6.83,6.0,772.00,0.8
2020-11-07,03:45:00,DRY,4.35,6.70,6.5,772.00,1.1
2020-11-07,03:50:00,DRY,4.57,6.70,6.0,772.00,1.2
2020-11-07,03:55:00,DRY,3.35,7.05,6.0,772.00,0.7
2020-11-07,04:00:00,DRY,3.83,7.20,6.0,772.00,1.2
2020-11-07,04:05:00,DRY,4.10,7.20,5.5,772.00,0.9
2020-11-07,04:10:00,DRY,5.23,7.17,5.3,772.00,1.1
2020-11-07,04:15:00,DRY,3.70,7.20,6.0,772.00,0.8
2020-11-07,04:20:00,DRY,4.53,6.97,6.3,772.00,1.2
2020-11-07,04:25:00,DRY,3.85,6.80,5.5,772.00,1.5
2020-11-07,04:30:00,DRY,5.73,6.80,6.3,772.00,1.2
2020-11-07,04:35:00,DRY,4.85,6.95,6.0,772.00,2.5
2020-11-07,04:40:00,DRY,5.33,6.93,5.3,772.00,1.6
2020-11-07,04:45:00,DRY,4.80,7.20,5.5,772.00,1.0
2020-11-07,04:50:00,DRY,4.00,6.97,5.3,772.00,0.8
2020-11-07,04:55:00,DRY,4.50,7.15,5.0,772.00,1.1
2020-11-07,05:00:00,DRY,5.30,7.40,5.0,772.00,0.9
2020-11-07,05:05:00,DRY,4.75,7.30,5.0,772.00,1.1
2020-11-07,05:10:00,DRY,5.27,6.93,6.7,772.00,1.3
2020-11-07,05:15:00,DRY,5.50,6.95,5.0,772.00,1.4
2020-11-07,05:20:00,DRY,4.53,6.83,6.0,772.00,0.5
2020-11-07,05:25:00,DRY,4.85,6.75,6.0,772.00,0.9
2020-11-07,05:30:00,DRY,5.13,6.90,6.0,772.00,0.9
2020-11-07,05:35:00,DRY,6.00,6.95,5.0,772.00,0.7
2020-11-07,05:40:00,DRY,6.17,6.93,5.0,772.00,1.1
2020-11-07,05:45:00,DRY,5.15,6.95,4.5,772.00,1.5
2020-11-07,05:50:00,DRY,4.33,6.93,5.0,772.00,0.9
2020-11-07,05:55:00,DRY,5.40,6.70,6.0,772.00,1.1
2020-11-07,06:00:00,DRY,5.13,6.67,5.0,772.00,1.0
2020-11-07,06:05:00,DRY,5.05,6.60,5.5,772.00,0.9
2020-11-07,06:10:00,DRY,5.80,6.60,5.3,772.00,1.0
2020-11-07,06:15:00,DRY,5.50,6.45,6.5,772.00,1.0
2020-11-07,06:20:00,DRY,5.00,6.30,5.7,772.00,1.1
2020-11-07,06:25:00,DRY,5.00,6.45,5.5,772.00,1.6
2020-11-07,06:30:00,DRY,5.10,6.17,6.3,772.00,1.8
2020-11-07,06:35:00,DRY,4.40,6.00,6.5,772.00,1.8
2020-11-07,06:40:00,DRY,6.20,5.87,6.0,772.00,1.1
2020-11-07,06:45:00,DRY,6.50,5.75,7.0,772.00,0.8
2020-11-07,06:50:00,DRY,6.20,6.37,6.0,772.00,1.3
2020-11-07,06:55:00,DRY,5.85,6.35,7.0,772.00,1.2
2020-11-07,07:00:00,DRY,6.63,6.37,6.7,772.00,1.2
2020-11-07,07:05:00,DRY,6.40,6.95,6.0,772.00,1.4
2020-11-07,07:10:00,DRY,5.73,7.00,5.0,772.00,1.5
2020-11-07,07:15:00,DRY,5.40,7.05,5.0,772.00,2.6
2020-11-07,07:20:00,DRY,5.90,6.73,6.0,772.33,4.1
2020-11-07,07:25:00,DRY,5.50,5.95,6.5,772.50,5.9
2020-11-07,07:30:00,DRY,4.60,5.87,9.3,773.00,8.6
2020-11-07,07:35:00,DRY,3.40,5.25,9.0,773.00,11.9
2020-11-07,07:40:00,DRY,5.43,5.77,7.7,773.00,14.9
2020-11-07,07:45:00,DRY,4.85,6.50,6.5,773.00,18.1
2020-11-07,07:50:00,DRY,5.77,6.67,6.3,773.00,20.7
2020-11-07,07:55:00,DRY,5.40,6.65,6.0,773.00,23.2
2020-11-07,08:00:00,DRY,4.30,6.43,7.7,773.00,33.8
2020-11-07,08:05:00,DRY,5.50,6.45,8.0,773.00,150.7
2020-11-07,08:10:00,DRY,6.40,6.40,7.3,773.00,170.8
2020-11-07,08:15:00,DRY,5.95,6.25,8.5,773.00,191.1
2020-11-07,08:20:00,DRY,5.60,6.07,9.7,773.00,211.9
2020-11-07,08:25:00,DRY,6.25,6.05,9.5,773.00,232.8
2020-11-07,08:30:00,DRY,5.27,6.20,9.3,773.00,253.2
2020-11-07,08:35:00,DRY,6.60,6.15,10.0,773.00,275.5
2020-11-07,08:40:00,DRY,6.47,6.27,9.0,773.00,296.8
2020-11-07,08:45:00,DRY,5.65,6.30,8.0,773.00,319.3
2020-11-07,08:50:00,DRY,5.97,6.37,8.0,773.00,340.9
2020-11-07,08:55:00,DRY,6.50,6.40,8.0,773.00,362.0
2020-11-07,09:00:00,DRY,5.97,6.27,9.7,773.33,382.4
2020-11-07,09:05:00,DRY,7.50,6.20,10.0,773.50,403.9
2020-11-07,09:10:00,DRY,5.57,6.40,9.7,774.00,424.7
2020-11-07,09:15:00,DRY,5.25,6.35,10.0,774.00,444.4
2020-11-07,09:20:00,DRY,4.97,6.33,10.7,774.00,463.8
2020-11-07,09:25:00,DRY,5.65,6.55,9.0,774.00,483.6
2020-11-07,09:30:00,DRY,6.50,6.40,9.0,774.00,502.3
2020-11-07,09:35:00,DRY,5.50,6.35,10.0,774.00,520.5
2020-11-07,09:40:00,DRY,5.97,6.33,12.0,774.00,539.2
2020-11-07,09:45:00,DRY,4.25,6.45,12.0,774.00,557.5
2020-11-07,09:50:00,DRY,4.63,6.63,9.7,774.00,574.3
2020-11-07,09:55:00,DRY,5.55,6.60,12.0,774.00,592.5
2020-11-07,10:00:00,DRY,5.47,6.43,13.3,774.00,609.4
2020-11-07,10:05:00,DRY,4.65,6.60,12.5,774.00,625.0
2020-11-07,10:10:00,DRY,5.27,6.60,13.3,774.00,641.1
2020-11-07,10:15:00,DRY,7.90,6.65,14.0,774.00,656.9
2020-11-07,10:20:00,DRY,5.77,6.80,13.7,774.00,671.9
2020-11-07,10:25:00,DRY,6.65,6.90,13.5,774.00,686.2
2020-11-07,10:30:00,DRY,6.50,6.90,13.3,774.00,700.9
2020-11-07,10:35:00,DRY,6.60,7.10,12.5,774.00,714.0
2020-11-07,10:40:00,DRY,7.23,7.13,12.7,774.00,727.9
2020-11-07,10:45:00,DRY,5.40,7.15,14.5,774.00,741.0
2020-11-07,10:50:00,DRY,5.90,7.37,12.7,774.00,753.4
2020-11-07,10:55:00,DRY,5.25,7.35,14.0,774.50,766.2
2020-11-07,11:00:00,DRY,5.77,7.57,15.7,774.33,777.0
2020-11-07,11:05:00,DRY,4.50,7.55,21.0,774.00,787.2
2020-11-07,11:10:00,DRY,4.53,7.70,15.0,774.00,798.6
2020-11-07,11:15:00,DRY,2.80,7.75,14.5,774.00,808.5
2020-11-07,11:20:00,DRY,4.83,7.73,17.7,774.33,818.3
2020-11-07,11:25:00,DRY,3.85,7.90,18.0,774.00,826.5
2020-11-07,11:30:00,DRY,4.30,7.77,16.7,774.00,836.1
2020-11-07,11:35:00,DRY,3.65,7.85,23.0,774.00,844.2
2020-11-07,11:40:00,DRY,4.93,7.87,36.0,774.00,850.8
2020-11-07,11:45:00,DRY,3.20,7.65,38.5,774.00,857.1
2020-11-07,11:50:00,DRY,3.83,8.10,26.3,774.00,865.5
2020-11-07,11:55:00,DRY,3.80,8.25,35.5,774.00,872.7
2020-11-07,12:00:00,DRY,4.10,7.57,50.7,774.00,875.5
2020-11-07,12:05:00,DRY,3.45,6.65,60.0,774.00,880.2
2020-11-07,12:10:00,DRY,4.13,6.83,63.7,774.00,885.5
2020-11-07,12:15:00,DRY,2.65,6.80,68.5,774.00,890.0
2020-11-07,12:20:00,DRY,3.83,6.90,62.0,774.00,892.9
2020-11-07,12:25:00,DRY,3.80,7.00,64.0,774.00,896.2
2020-11-07,12:30:00,DRY,5.13,7.23,60.3,774.00,897.8
2020-11-07,12:35:00,DRY,4.25,7.00,59.0,774.00,901.5
2020-11-07,12:40:00,DRY,5.43,7.33,56.0,774.00,904.5
2020-11-07,12:45:00,DRY,6.55,7.45,50.0,774.00,904.2
2020-11-07,12:50:00,DRY,4.90,7.87,43.0,774.00,905.2
2020-11-07,12:55:00,DRY,4.80,7.85,65.5,774.00,905.0
2020-11-07,13:00:00,DRY,5.20,7.43,57.3,774.00,839.2
2020-11-07,13:05:00,DRY,5.10,6.35,73.5,774.00,909.5
2020-11-07,13:10:00,DRY,4.97,6.70,72.3,774.00,930.9
2020-11-07,13:15:00,DRY,4.95,6.90,77.0,774.00,940.1
2020-11-07,13:20:00,DRY,5.43,7.37,62.7,774.00,918.7
2020-11-07,13:25:00,DRY,4.55,8.00,54.0,774.00,913.3
2020-11-07,13:30:00,DRY,3.60,7.50,73.0,774.00,921.7
2020-11-07,13:35:00,DRY,3.70,6.90,72.0,774.00,915.0
2020-11-07,13:40:00,DRY,4.33,7.10,69.3,774.00,887.1
2020-11-07,13:45:00,DRY,4.00,7.30,79.0,774.00,891.8
2020-11-07,13:50:00,DRY,5.27,7.63,51.0,774.00,878.1
2020-11-07,13:55:00,DRY,4.00,7.75,52.5,774.00,804.1
2020-11-07,14:00:00,DRY,3.00,7.27,71.7,774.00,818.3
2020-11-07,14:05:00,DRY,4.75,7.25,79.5,774.00,755.0
2020-11-07,14:10:00,DRY,4.13,7.33,71.0,774.00,861.0
2020-11-07,14:15:00,DRY,3.25,8.35,48.0,774.00,826.3
2020-11-07,14:20:00,DRY,4.23,8.13,65.3,774.00,811.7
2020-11-07,14:25:00,DRY,4.40,8.50,59.5,774.00,793.2
2020-11-07,14:30:00,DRY,4.50,8.17,59.7,774.00,777.3
2020-11-07,14:35:00,DRY,3.95,8.30,54.5,774.00,800.7
2020-11-07,14:40:00,DRY,4.47,8.83,35.0,774.00,795.4
2020-11-07,14:45:00,DRY,5.40,9.35,26.0,774.00,762.6
2020-11-07,14:50:00,DRY,5.60,9.53,22.3,774.00,766.3
2020-11-07,14:55:00,DRY,5.40,9.40,29.5,773.50,757.5
2020-11-07,15:00:00,DRY,5.77,9.30,23.0,773.67,631.8
2020-11-07,15:05:00,DRY,5.15,9.25,26.5,773.50,740.5
2020-11-07,15:10:00,DRY,5.23,9.40,26.3,773.67,721.7
2020-11-07,15:15:00,DRY,4.65,9.25,36.5,774.00,704.7
2020-11-07,15:20:00,DRY,4.53,8.87,37.7,774.00,686.6
2020-11-07,15:25:00,DRY,6.10,8.95,32.0,774.00,671.6
2020-11-07,15:30:00,DRY,4.17,8.97,39.0,774.00,656.1
2020-11-07,15:35:00,DRY,5.90,8.35,52.5,774.00,641.9
2020-11-07,15:40:00,DRY,5.70,7.87,60.7,773.33,629.4
2020-11-07,15:45:00,DRY,5.60,7.15,64.5,774.00,612.6
2020-11-07,15:50:00,DRY,5.67,8.10,46.3,774.00,587.4
2020-11-07,15:55:00,DRY,5.00,8.10,42.5,774.00,517.8
2020-11-07,16:00:00,DRY,4.70,8.33,46.7,773.67,551.4
2020-11-07,16:05:00,DRY,4.90,9.05,20.0,774.00,537.5
2020-11-07,16:10:00,DRY,4.80,8.40,40.0,774.00,514.6
2020-11-07,16:15:00,DRY,4.40,9.50,21.5,774.00,497.1
2020-11-07,16:20:00,DRY,5.53,8.60,47.0,774.00,454.5
2020-11-07,16:25:00,DRY,5.95,8.20,48.5,774.00,452.9
2020-11-07,16:30:00,DRY,3.93,7.83,58.7,774.00,383.1
2020-11-07,16:35:00,DRY,4.95,8.45,52.5,774.00,332.2
2020-11-07,16:40:00,DRY,5.83,7.97,50.7,774.00,266.2
2020-11-07,16:45:00,DRY,4.60,8.45,35.0,774.00,262.3
2020-11-07,16:50:00,DRY,6.43,8.57,29.7,774.00,181.4
2020-11-07,16:55:00,DRY,5.90,8.45,32.0,774.00,224.4
2020-11-07,17:00:00,DRY,7.83,9.00,23.7,774.00,317.2
2020-11-07,17:05:00,DRY,5.35,9.25,26.0,774.00,338.0
2020-11-07,17:10:00,DRY,6.37,9.30,19.3,774.00,283.4
2020-11-07,17:15:00,DRY,6.55,10.30,10.0,774.00,268.4
2020-11-07,17:20:00,DRY,6.37,10.13,11.0,774.00,232.8
2020-11-07,17:25:00,DRY,6.90,10.15,9.5,774.00,95.5
2020-11-07,17:30:00,DRY,7.47,10.07,9.0,774.00,123.6
2020-11-07,17:35:00,DRY,5.95,10.25,8.0,774.00,161.8
2020-11-07,17:40:00,DRY,6.17,10.17,7.7,774.00,142.9
2020-11-07,17:45:00,DRY,7.10,10.40,6.0,774.00,123.9
2020-11-07,17:50:00,DRY,6.10,10.27,6.7,774.00,100.9
2020-11-07,17:55:00,DRY,7.65,10.00,9.0,774.00,73.3
2020-11-07,18:00:00,DRY,6.97,9.60,9.7,774.00,51.8
2020-11-07,18:05:00,DRY,7.15,9.35,9.0,774.00,36.3
2020-11-07,18:10:00,DRY,5.63,9.47,7.0,774.00,24.4
2020-11-07,18:15:00,DRY,6.80,9.65,6.0,774.00,17.4
2020-11-07,18:20:00,DRY,8.00,9.40,7.0,774.00,11.7
2020-11-07,18:25:00,DRY,8.40,9.45,5.5,774.00,6.6
2020-11-07,18:30:00,DRY,6.67,9.50,4.0,774.00,3.7
2020-11-07,18:35:00,DRY,5.40,9.45,4.0,774.00,3.2
2020-11-07,18:40:00,DRY,5.37,9.60,4.0,774.00,1.6
2020-11-07,18:45:00,DRY,6.70,9.45,4.0,774.00,1.5
2020-11-07,18:50:00,DRY,6.63,9.03,4.0,774.00,1.1
2020-11-07,18:55:00,DRY,6.40,8.95,5.5,774.00,1.1
2020-11-07,19:00:00,DRY,8.30,8.97,5.0,774.00,1.1
2020-11-07,19:05:00,DRY,7.80,9.05,5.5,774.00,1.1
2020-11-07,19:10:00,DRY,6.83,9.27,5.0,774.00,1.8
2020-11-07,19:15:00,DRY,6.75,9.30,4.0,774.00,1.4
2020-11-07,19:20:00,DRY,6.00,9.43,3.7,774.00,1.2
2020-11-07,19:25:00,DRY,4.90,9.40,4.0,774.00,1.3
2020-11-07,19:30:00,DRY,6.10,9.37,4.0,774.00,1.2
2020-11-07,19:35:00,DRY,3.95,9.35,4.0,774.00,1.5
2020-11-07,19:40:00,DRY,5.87,9.13,3.7,774.67,1.2
2020-11-07,19:45:00,DRY,5.90,9.30,4.0,774.50,2.1
2020-11-07,19:50:00,DRY,5.90,9.57,3.7,774.67,1.5
2020-11-07,19:55:00,DRY,5.65,9.50,4.0,774.50,1.0
2020-11-07,20:00:00,DRY,7.07,9.67,4.0,775.00,1.3
2020-11-07,20:05:00,DRY,5.95,9.80,4.0,775.00,0.8
2020-11-07,20:10:00,DRY,5.63,9.87,3.7,774.33,1.1
2020-11-07,20:15:00,DRY,6.15,9.85,4.0,775.00,1.1
2020-11-07,20:20:00,DRY,6.33,9.87,3.3,775.00,1.3
2020-11-07,20:25:00,DRY,6.80,9.55,3.5,775.00,1.2
2020-11-07,20:30:00,DRY,6.47,9.30,3.3,775.00,1.2
2020-11-07,20:35:00,DRY,3.90,9.00,4.0,775.00,1.4
2020-11-07,20:40:00,DRY,6.10,9.37,4.0,775.00,1.1
2020-11-07,20:45:00,DRY,4.35,9.35,4.0,775.00,1.4
2020-11-07,20:50:00,DRY,6.00,9.53,4.0,775.00,1.3
2020-11-07,20:55:00,DRY,5.80,9.65,3.5,775.00,1.4
2020-11-07,21:00:00,DRY,5.30,9.70,3.3,775.00,1.4
2020-11-07,21:05:00,DRY,6.05,9.60,3.0,775.00,1.2
2020-11-07,21:10:00,DRY,3.80,9.67,3.0,775.00,1.0
2020-11-07,21:15:00,DRY,5.10,9.55,3.0,775.00,1.5
2020-11-07,21:20:00,DRY,5.00,9.63,3.0,775.00,1.5
2020-11-07,21:25:00,DRY,4.40,9.75,3.0,775.00,1.1
2020-11-07,21:30:00,DRY,6.03,9.57,3.0,775.00,1.7
2020-11-07,21:35:00,DRY,6.65,9.40,3.0,775.00,1.2
2020-11-07,21:40:00,DRY,4.03,9.07,3.3,775.00,1.0
2020-11-07,21:45:00,DRY,6.55,9.55,3.0,775.00,1.2
2020-11-07,21:50:00,DRY,5.33,9.80,3.0,775.00,1.3
2020-11-07,21:55:00,DRY,6.00,9.90,3.0,775.00,1.5
2020-11-07,22:00:00,DRY,5.63,9.67,3.0,775.00,2.2
2020-11-07,22:05:00,DRY,2.90,9.70,3.0,775.00,1.9
2020-11-07,22:10:00,DRY,3.60,9.67,3.0,775.00,1.3
2020-11-07,22:15:00,DRY,6.80,9.65,3.0,775.00,1.3
2020-11-07,22:20:00,DRY,10.13,9.63,3.0,775.00,1.2
2020-11-07,22:25:00,DRY,7.40,9.60,3.5,775.00,1.3
2020-11-07,22:30:00,DRY,7.37,9.43,4.0,775.00,1.1
2020-11-07,22:35:00,DRY,7.40,9.50,3.5,775.00,1.1
2020-11-07,22:40:00,DRY,8.00,9.47,3.7,775.00,1.0
2020-11-07,22:45:00,DRY,8.00,9.45,4.0,775.00,1.6
2020-11-07,22:50:00,DRY,7.50,8.77,6.7,775.00,1.5
2020-11-07,22:55:00,DRY,7.30,8.45,5.5,775.50,1.4
2020-11-07,23:00:00,DRY,6.40,8.73,5.3,775.00,1.1
2020-11-07,23:05:00,DRY,6.60,8.20,6.5,775.00,1.7
2020-11-07,23:10:00,DRY,6.67,8.53,4.7,775.00,0.7
2020-11-07,23:15:00,DRY,5.90,9.00,4.0,775.50,1.4
2020-11-07,23:20:00,DRY,6.63,8.97,4.0,775.00,1.3
2020-11-07,23:25:00,DRY,6.60,9.20,4.0,775.00,1.1
2020-11-07,23:30:00,DRY,6.40,8.97,3.7,775.00,1.2
2020-11-07,23:35:00,DRY,6.40,8.90,4.5,775.50,1.4
2020-11-07,23:40:00,DRY,5.97,8.87,4.7,775.00,1.7
2020-11-07,23:45:00,DRY,5.75,8.95,4.0,775.00,1.0
2020-11-07,23:50:00,DRY,5.67,9.10,4.0,775.33,0.7
2020-11-07,23:55:00,DRY,5.15,8.95,4.5,775.00,1.4
2020-11-08,00:00:00,DRY,5.87,8.67,4.3,775.33,1.4
2020-11-08,00:05:00,DRY,5.40,8.35,6.0,775.00,0.9
2020-11-08,00:10:00,DRY,5.23,8.43,5.7,775.00,1.1
2020-11-08,00:15:00,DRY,5.10,8.30,5.0,775.00,1.1
2020-11-08,00:20:00,DRY,6.10,8.33,5.0,775.00,1.1
2020-11-08,00:25:00,DRY,5.85,8.35,5.0,775.00,1.1
2020-11-08,00:30:00,DRY,5.77,8.33,4.7,775.00,1.0
2020-11-08,00:35:00,DRY,5.95,8.30,4.5,775.00,1.5
2020-11-08,00:40:00,DRY,6.03,8.43,4.0,775.00,1.3
2020-11-08,00:45:00,DRY,6.25,8.65,5.0,775.00,0.9
2020-11-08,00:50:00,DRY,6.20,8.70,4.7,775.00,1.1
2020-11-08,00:55:00,DRY,6.85,8.60,5.0,775.00,1.1
2020-11-08,01:00:00,DRY,5.80,8.67,5.0,775.00,1.2
2020-11-08,01:05:00,DRY,5.40,8.40,6.0,775.00,1.1
2020-11-08,01:10:00,DRY,6.03,8.37,5.7,775.00,1.7
2020-11-08,01:15:00,DRY,5.45,8.60,5.0,775.00,0.8
2020-11-08,01:20:00,DRY,5.53,8.87,5.3,775.00,2.0
2020-11-08,01:25:00,DRY,6.40,8.90,5.0,775.00,1.3
2020-11-08,01:30:00,DRY,5.50,8.87,5.3,775.00,1.9
2020-11-08,01:35:00,DRY,4.60,8.85,5.0,775.00,1.5
2020-11-08,01:40:00,DRY,6.07,8.73,5.3,775.00,1.2
2020-11-08,01:45:00,DRY,5.50,8.65,5.5,775.00,1.9
2020-11-08,01:50:00,DRY,5.23,9.20,5.3,775.00,1.3
2020-11-08,01:55:00,DRY,5.55,9.05,5.0,775.00,1.4
2020-11-08,02:00:00,DRY,4.97,9.07,4.7,775.00,1.2
2020-11-08,02:05:00,DRY,5.80,8.55,5.0,775.00,1.1
2020-11-08,02:10:00,DRY,5.33,8.73,4.3,775.00,1.4
2020-11-08,02:15:00,DRY,5.30,9.05,5.0,775.00,1.1
2020-11-08,02:20:00,DRY,4.00,8.83,4.0,775.00,1.2
2020-11-08,02:25:00,DRY,4.25,8.50,4.0,775.00,1.2
2020-11-08,02:30:00,DRY,3.50,8.87,4.0,775.00,1.2
2020-11-08,02:35:00,DRY,2.75,9.00,4.0,775.00,1.7
2020-11-08,02:40:00,DRY,2.77,9.10,4.0,775.00,1.7
2020-11-08,02:45:00,DRY,3.30,9.15,4.0,775.00,1.2
2020-11-08,02:50:00,DRY,3.33,9.07,4.0,775.00,1.3
2020-11-08,02:55:00,DRY,3.75,9.05,4.0,775.00,1.0
2020-11-08,03:00:00,DRY,2.73,8.80,4.0,775.00,1.1
2020-11-08,03:05:00,DRY,2.70,8.55,4.0,775.00,0.9
2020-11-08,03:10:00,DRY,2.50,8.40,4.0,775.00,1.0
2020-11-08,03:15:00,DRY,1.45,8.55,4.0,775.00,0.7
2020-11-08,03:20:00,DRY,1.63,8.57,4.0,775.00,1.5
2020-11-08,03:25:00,DRY,1.70,8.70,4.0,775.00,1.0
2020-11-08,03:30:00,DRY,2.47,8.77,3.7,775.00,0.5
2020-11-08,03:35:00,DRY,2.35,8.75,4.0,775.00,1.2
2020-11-08,03:40:00,DRY,1.87,8.77,4.3,775.00,1.5
2020-11-08,03:45:00,DRY,2.75,8.75,3.5,775.00,1.8
2020-11-08,03:50:00,DRY,1.43,8.80,4.0,775.00,1.2
2020-11-08,03:55:00,DRY,2.10,8.75,3.5,775.00,0.9
2020-11-08,04:00:00,DRY,2.60,8.63,4.3,775.00,1.1
2020-11-08,04:05:00,DRY,1.85,8.80,4.0,775.00,0.6
2020-11-08,04:10:00,DRY,3.30,8.57,5.0,775.00,1.1
2020-11-08,04:15:00,DRY,2.95,8.80,5.5,775.00,1.2
2020-11-08,04:20:00,DRY,2.27,8.57,5.7,775.00,1.0
2020-11-08,04:25:00,DRY,3.65,8.40,6.0,775.00,1.4
2020-11-08,04:30:00,DRY,2.30,8.40,5.7,775.00,1.2
2020-11-08,04:35:00,DRY,1.95,8.55,5.0,775.00,1.6
2020-11-08,04:40:00,DRY,3.77,8.73,5.0,775.00,1.0
2020-11-08,04:45:00,DRY,2.35,8.70,6.0,775.00,0.9
2020-11-08,04:50:00,DRY,2.03,8.53,7.0,775.00,0.8
2020-11-08,04:55:00,DRY,3.35,8.30,10.5,775.00,0.7
2020-11-08,05:00:00,DRY,2.33,8.60,12.0,775.00,1.1
2020-11-08,05:05:00,DRY,3.40,8.75,12.0,775.00,1.6
2020-11-08,05:10:00,DRY,3.60,8.87,12.0,775.00,0.9
2020-11-08,05:15:00,DRY,3.20,8.85,12.0,775.00,1.3
2020-11-08,05:20:00,DRY,2.13,8.83,12.3,775.00,1.5
2020-11-08,05:25:00,DRY,2.85,8.80,13.0,775.00,0.6
2020-11-08,05:30:00,DRY,1.70,8.87,13.3,775.00,1.0
2020-11-08,05:35:00,DRY,1.75,9.00,12.5,775.00,1.6
2020-11-08,05:40:00,DRY,1.43,8.77,14.0,775.00,1.6
2020-11-08,05:45:00,DRY,1.65,8.65,14.0,775.00,1.2
2020-11-08,05:50:00,DRY,3.37,8.73,13.3,775.00,1.0
2020-11-08,05:55:00,DRY,3.00,8.65,18.0,775.00,0.5
2020-11-08,06:00:00,DRY,3.57,8.63,22.0,775.00,1.1
2020-11-08,06:05:00,DRY,3.95,8.65,21.5,775.00,1.1
2020-11-08,06:10:00,DRY,3.47,8.80,22.3,775.00,1.3
2020-11-08,06:15:00,DRY,2.40,8.60,22.5,775.00,2.6
2020-11-08,06:20:00,DRY,2.73,8.67,23.0,775.00,0.8
2020-11-08,06:25:00,DRY,2.75,8.55,22.0,775.00,1.0
2020-11-08,06:30:00,DRY,3.80,8.63,20.7,775.00,1.3
2020-11-08,06:35:00,DRY,3.70,8.65,18.5,775.00,1.4
2020-11-08,06:40:00,DRY,3.33,8.70,16.0,775.00,0.9
2020-11-08,06:45:00,DRY,2.65,8.60,17.0,775.00,1.0
2020-11-08,06:50:00,DRY,2.87,8.13,20.7,775.00,1.2
2020-11-08,06:55:00,DRY,3.00,7.95,22.0,775.00,1.2
2020-11-08,07:00:00,DRY,3.00,8.17,22.0,775.00,1.4
2020-11-08,07:05:00,DRY,3.45,7.90,22.5,775.00,1.4
2020-11-08,07:10:00,DRY,2.30,7.87,22.0,775.00,1.6
2020-11-08,07:15:00,DRY,2.20,8.00,21.0,775.00,2.2
2020-11-08,07:20:00,DRY,2.53,7.87,21.3,775.00,3.9
2020-11-08,07:25:00,DRY,3.25,7.70,20.5,775.00,6.1
2020-11-08,07:30:00,DRY,2.60,7.70,20.0,775.00,8.8
2020-11-08,07:35:00,DRY,2.85,7.65,22.0,775.00,12.5
2020-11-08,07:40:00,DRY,2.83,7.77,19.7,775.33,14.1
2020-11-08,07:45:00,DRY,2.40,7.75,16.5,775.50,17.4
2020-11-08,07:50:00,DRY,2.80,7.73,13.3,776.00,20.1
2020-11-08,07:55:00,DRY,2.90,7.75,14.5,776.00,22.6
2020-11-08,08:00:00,DRY,2.77,8.03,12.3,776.00,24.9
2020-11-08,08:05:00,DRY,2.30,8.55,9.0,776.00,125.4
2020-11-08,08:10:00,DRY,2.63,8.47,12.0,776.00,165.2
2020-11-08,08:15:00,DRY,2.50,8.90,19.0,776.00,187.0
2020-11-08,08:20:00,DRY,2.13,8.97,22.7,776.00,207.9
2020-11-08,08:25:00,DRY,2.20,8.90,23.0,776.00,229.0
2020-11-08,08:30:00,DRY,2.70,8.90,22.3,776.00,249.7
2020-11-08,08:35:00,DRY,2.40,9.10,21.5,776.00,272.1
2020-11-08,08:40:00,DRY,1.03,9.07,23.0,776.00,293.0
2020-11-08,08:45:00,DRY,1.35,9.25,23.0,776.00,314.6
2020-11-08,08:50:00,DRY,1.73,9.47,22.3,776.00,335.6
2020-11-08,08:55:00,DRY,2.35,9.70,21.5,776.00,355.6
2020-11-08,09:00:00,DRY,1.83,9.37,22.7,776.00,375.0
2020-11-08,09:05:00,DRY,1.10,9.25,23.0,776.00,394.6
2020-11-08,09:10:00,DRY,1.73,9.53,22.3,776.00,416.2
2020-11-08,09:15:00,DRY,1.95,9.90,22.5,776.00,436.1
2020-11-08,09:20:00,DRY,1.93,9.73,22.3,776.00,456.3
2020-11-08,09:25:00,DRY,0.45,9.80,22.5,776.00,475.0
2020-11-08,09:30:00,DRY,0.93,10.17,21.3,776.00,495.0
2020-11-08,09:35:00,DRY,0.55,10.30,21.0,776.00,512.8
2020-11-08,09:40:00,DRY,1.03,10.07,21.7,776.00,531.3
2020-11-08,09:45:00,DRY,0.55,10.30,22.0,776.00,549.3
2020-11-08,09:50:00,DRY,1.13,10.80,21.3,776.00,566.5
2020-11-08,09:55:00,DRY,0.60,10.85,21.0,776.00,584.6
2020-11-08,10:00:00,DRY,1.07,10.87,21.0,776.00,601.1
2020-11-08,10:05:00,DRY,1.25,11.00,21.0,776.00,617.4
2020-11-08,10:10:00,DRY,1.40,11.20,19.3,776.00,634.2
2020-11-08,10:15:00,DRY,1.25,11.35,19.5,776.00,650.3
2020-11-08,10:20:00,DRY,1.70,11.00,20.0,776.00,665.8
2020-11-08,10:25:00,DRY,1.45,11.25,19.5,776.00,680.6
2020-11-08,10:30:00,DRY,1.57,11.43,19.7,776.00,696.5
2020-11-08,10:35:00,DRY,1.45,11.65,20.0,776.00,711.2
2020-11-08,10:40:00,DRY,1.93,11.70,20.0,776.00,724.3
2020-11-08,10:45:00,DRY,2.05,11.85,20.5,776.00,737.2
2020-11-08,10:50:00,DRY,0.80,12.07,21.0,776.00,750.9
2020-11-08,10:55:00,DRY,1.20,12.40,21.5,776.00,762.5
2020-11-08,11:00:00,DRY,2.17,12.30,19.7,776.00,774.6
2020-11-08,11:05:00,DRY,2.20,12.05,20.5,776.00,786.0
2020-11-08,11:10:00,DRY,1.77,12.13,20.3,776.00,796.6
2020-11-08,11:15:00,DRY,1.35,12.20,21.5,776.00,808.0
2020-11-08,11:20:00,DRY,1.50,12.30,23.7,776.00,817.5
2020-11-08,11:25:00,DRY,1.95,12.30,24.0,776.00,827.6
2020-11-08,11:30:00,DRY,1.23,12.20,24.3,776.00,835.6
2020-11-08,11:35:00,DRY,1.75,12.10,27.0,776.00,842.9
2020-11-08,11:40:00,DRY,1.83,12.03,25.3,776.00,849.7
2020-11-08,11:45:00,DRY,1.20,12.05,25.0,776.00,857.8
2020-11-08,11:50:00,DRY,1.40,12.10,26.0,776.00,863.8
2020-11-08,11:55:00,DRY,1.50,11.80,31.0,776.00,870.0
2020-11-08,12:00:00,DRY,1.17,11.87,33.3,776.00,877.1
2020-11-08,12:05:00,DRY,0.80,11.70,31.5,776.00,881.6
2020-11-08,12:10:00,DRY,1.47,11.80,25.3,776.00,887.2
2020-11-08,12:15:00,DRY,1.30,11.90,25.0,776.00,891.0
2020-11-08,12:20:00,DRY,1.37,12.10,27.0,776.00,895.7
2020-11-08,12:25:00,DRY,2.20,12.25,25.5,776.00,899.7
2020-11-08,12:30:00,DRY,1.57,12.40,27.0,776.00,902.3
2020-11-08,12:35:00,DRY,1.25,12.80,29.5,776.00,903.6
2020-11-08,12:40:00,DRY,1.93,12.40,28.3,776.00,905.6
2020-11-08,12:45:00,DRY,1.80,12.70,31.5,776.00,907.9
2020-11-08,12:50:00,DRY,2.30,12.63,29.3,776.00,908.2
2020-11-08,12:55:00,DRY,1.50,12.60,27.0,776.00,909.5
2020-11-08,13:00:00,DRY,1.67,12.67,27.7,775.67,907.5
2020-11-08,13:05:00,DRY,1.75,13.10,23.5,776.00,908.5
2020-11-08,13:10:00,DRY,1.30,13.13,22.7,775.33,906.4
2020-11-08,13:15:00,DRY,1.65,13.15,24.5,776.00,904.4
2020-11-08,13:20:00,DRY,1.43,13.30,21.0,776.00,902.5
2020-11-08,13:25:00,DRY,1.10,13.20,25.0,775.00,898.0
2020-11-08,13:30:00,DRY,1.80,13.40,28.0,776.00,893.8
2020-11-08,13:35:00,DRY,1.00,13.20,26.0,775.00,887.7
2020-11-08,13:40:00,DRY,1.37,13.13,23.0,775.00,886.4
2020-11-08,13:45:00,DRY,1.70,13.15,26.0,775.00,878.1
2020-11-08,13:50:00,DRY,1.97,12.87,28.7,775.00,872.5
2020-11-08,13:55:00,DRY,3.00,13.10,27.5,775.00,867.5
2020-11-08,14:00:00,DRY,1.50,13.07,27.3,775.00,859.1
2020-11-08,14:05:00,DRY,2.20,12.80,29.0,775.00,852.5
2020-11-08,14:10:00,DRY,1.37,12.57,28.7,775.00,843.4
2020-11-08,14:15:00,DRY,1.80,12.35,28.5,775.00,835.6
2020-11-08,14:20:00,DRY,2.20,12.13,29.3,775.00,827.2
2020-11-08,14:25:00,DRY,2.85,11.85,27.0,775.00,818.1
2020-11-08,14:30:00,DRY,1.40,12.13,28.0,775.00,808.3
2020-11-08,14:35:00,DRY,1.95,12.05,26.0,775.00,798.0
2020-11-08,14:40:00,DRY,3.43,11.90,26.7,775.00,787.1
2020-11-08,14:45:00,DRY,1.45,11.90,25.5,775.00,776.5
2020-11-08,14:50:00,DRY,2.43,12.10,24.7,775.00,764.6
2020-11-08,14:55:00,DRY,1.70,12.50,23.0,775.00,753.2
2020-11-08,15:00:00,DRY,2.40,12.23,24.3,775.00,740.0
2020-11-08,15:05:00,DRY,1.90,12.25,23.5,775.00,726.5
2020-11-08,15:10:00,DRY,1.80,12.33,24.0,775.00,711.9
2020-11-08,15:15:00,DRY,2.60,12.30,26.5,775.00,697.2
2020-11-08,15:20:00,DRY,2.37,12.43,26.0,775.00,684.2
2020-11-08,15:25:00,DRY,2.50,12.25,27.5,775.00,669.0
2020-11-08,15:30:00,DRY,2.00,12.37,29.7,775.00,652.6
2020-11-08,15:35:00,DRY,1.40,12.65,31.5,775.00,638.6